User: anonymous   Login
Location: Bakov nad Jizerou
(50.4784°N, 14.9394°E)
Time: 19:09:43
(UTC+00:00)
Language:

RESURS O1 DEB - Orbit

View from above orbital plane
View from above orbital plane
View from above satellite
View from above satellite

Ground track
Ground track

The orbit data is extracted from the following two-line orbital elements,

1 49242U 94074FW  22012.24481834  .00006886  00000-0  84723-3 0  9991
2 49242  97.9177  64.5177 0003428  73.1398 287.0192 14.83294576 22722
Epoch (UTC): 12 January 2022 05:52:32
Eccentricity: 0.0003428
inclination: 97.9177°
perigee height: 616 km
apogee height: 621 km
right ascension of ascending node: 64.5177°
argument of perigee: 73.1398°
revolutions per day: 14.83294576
mean anomaly at epoch: 287.0192°
orbit number at epoch: 2272

The dashed part of the orbit path shows where the satellite is in the earth's shadow,  

DLR